• In Lithuania
  • List of Countries
  • For 7 days
  • Water Temperature
  • Satellite Maps
  • Weather Map
  • Weather Widgets
  • user-avatar
    Login

    Hourly Weather Morley

    Today, 20 September, Thursday

    Time Temperature Precipitation Wind Pressure Humidity
    00:00 +10°C° 0 mm 6 mps 749 mmHg 77%
    01:00 +10°C° 0.2 mm 5 mps 749 mmHg 78%
    02:00 +10°C° 0.2 mm 5 mps 749 mmHg 79%
    03:00 +10°C° 0.2 mm 5 mps 749 mmHg 80%
    04:00 +11°C° 0.1 mm 4 mps 749 mmHg 81%
    05:00 +11°C° 0.1 mm 4 mps 749 mmHg 82%
    06:00 +10°C° 0 mm 3 mps 748 mmHg 85%
    07:00 +11°C° 0 mm 3 mps 748 mmHg 81%
    08:00 +12°C° 0 mm 3 mps 748 mmHg 78%
    09:00 +13°C° 0 mm 4 mps 748 mmHg 75%
    10:00 +13°C° 0.4 mm 3 mps 748 mmHg 76%
    11:00 +13°C° 0.4 mm 3 mps 747 mmHg 77%
    12:00 +14°C° 0.4 mm 2 mps 746 mmHg 78%
    13:00 +13°C° 2.9 mm 3 mps 745 mmHg 83%
    14:00 +13°C° 2.9 mm 4 mps 744 mmHg 87%
    15:00 +12°C° 2.9 mm 4 mps 742 mmHg 92%
    16:00 +13°C° 3.4 mm 5 mps 741 mmHg 92%
    17:00 +14°C° 3.4 mm 6 mps 740 mmHg 91%
    18:00 +15°C° 3.4 mm 6 mps 739 mmHg 90%
    19:00 +15°C° 1.4 mm 6 mps 738 mmHg 90%
    20:00 +15°C° 1.4 mm 6 mps 737 mmHg 90%
    21:00 +15°C° 1.4 mm 6 mps 737 mmHg 90%
    22:00 +15°C° 0.7 mm 6 mps 736 mmHg 89%
    23:00 +14°C° 0.7 mm 6 mps 735 mmHg 88%

    Tomorrow, 21 September, Friday

    Time Temperature Precipitation Wind Pressure Humidity
    00:00 +14°C° 0.7 mm 6 mps 735 mmHg 87%
    01:00 +11°C° 0.5 mm 7 mps 735 mmHg 86%
    02:00 +10°C° 0.5 mm 8 mps 736 mmHg 85%
    03:00 +7°C° 0.5 mm 9 mps 736 mmHg 83%
    04:00 +7°C° 0.2 mm 9 mps 738 mmHg 82%
    05:00 +7°C° 0.2 mm 8 mps 739 mmHg 80%
    06:00 +8°C° 0.2 mm 7 mps 740 mmHg 79%
    07:00 +7°C° 0.1 mm 8 mps 741 mmHg 76%
    08:00 +9°C° 0.1 mm 8 mps 742 mmHg 73%
    09:00 +8°C° 0.1 mm 9 mps 743 mmHg 70%
    10:00 +10°C° 0.2 mm 9 mps 744 mmHg 69%
    11:00 +10°C° 0.2 mm 9 mps 744 mmHg 68%
    12:00 +11°C° 0.2 mm 10 mps 745 mmHg 67%
    13:00 +11°C° 0.2 mm 9 mps 745 mmHg 67%
    14:00 +11°C° 0.2 mm 9 mps 746 mmHg 67%
    15:00 +11°C° 0.2 mm 9 mps 746 mmHg 67%
    16:00 +11°C° 0.1 mm 8 mps 747 mmHg 70%
    17:00 +10°C° 0.1 mm 7 mps 748 mmHg 74%
    18:00 +10°C° 0.1 mm 6 mps 748 mmHg 77%
    19:00 +10°C° 0 mm 6 mps 749 mmHg 77%
    20:00 +9°C° 0 mm 6 mps 750 mmHg 77%
    21:00 +9°C° 0 mm 5 mps 751 mmHg 77%
    22:00 +8°C° 0 mm 5 mps 751 mmHg 79%
    23:00 +8°C° 0 mm 5 mps 752 mmHg 80%

    Day after tomorrow, 22 September, Saturday

    Time Temperature Precipitation Wind Pressure Humidity
    00:00 +8°C° 0 mm 5 mps 752 mmHg 82%
    01:00 +8°C° 0 mm 5 mps 753 mmHg 81%
    02:00 +8°C° 0 mm 4 mps 753 mmHg 80%
    03:00 +7°C° 0 mm 4 mps 753 mmHg 79%
    04:00 +7°C° 0 mm 4 mps 754 mmHg 79%
    05:00 +7°C° 0 mm 4 mps 754 mmHg 80%
    06:00 +7°C° 0 mm 4 mps 754 mmHg 80%
    07:00 +8°C° 0 mm 4 mps 754 mmHg 77%
    08:00 +10°C° 0 mm 4 mps 755 mmHg 74%
    09:00 +10°C° 0 mm 5 mps 755 mmHg 71%
    10:00 +11°C° 0 mm 4 mps 755 mmHg 69%
    11:00 +12°C° 0 mm 4 mps 755 mmHg 66%
    12:00 +12°C° 0 mm 4 mps 755 mmHg 64%
    13:00 +12°C° 0.1 mm 3 mps 755 mmHg 67%
    14:00 +12°C° 0.1 mm 3 mps 754 mmHg 70%
    15:00 +12°C° 0.1 mm 3 mps 754 mmHg 72%
    16:00 +12°C° 0.3 mm 2 mps 754 mmHg 77%
    17:00 +10°C° 0.3 mm 2 mps 753 mmHg 81%
    18:00 +10°C° 0.3 mm 2 mps 753 mmHg 85%
    19:00 +9°C° 0.5 mm 2 mps 752 mmHg 87%
    20:00 +9°C° 0.5 mm 2 mps 752 mmHg 88%
    21:00 +9°C° 0.5 mm 3 mps 752 mmHg 90%
    22:00 +9°C° 0.7 mm 3 mps 751 mmHg 90%
    23:00 +9°C° 0.7 mm 3 mps 750 mmHg 91%

    23 September, Sunday

    Time Temperature Precipitation Wind Pressure Humidity
    00:00 +7°C° 0.7 mm 4 mps 749 mmHg 91%
    01:00 +7°C° 1 mm 4 mps 749 mmHg 92%
    02:00 +7°C° 1 mm 5 mps 748 mmHg 92%
    03:00 +7°C° 1 mm 5 mps 748 mmHg 92%
    04:00 +7°C° 2 mm 6 mps 748 mmHg 92%
    05:00 +7°C° 2 mm 6 mps 747 mmHg 92%
    06:00 +6°C° 2 mm 7 mps 747 mmHg 91%
    07:00 +7°C° 2 mm 6 mps 747 mmHg 91%
    08:00 +7°C° 2 mm 6 mps 748 mmHg 90%
    09:00 +7°C° 2 mm 6 mps 748 mmHg 89%
    10:00 +7°C° 1.3 mm 6 mps 749 mmHg 88%
    11:00 +7°C° 1.3 mm 6 mps 750 mmHg 88%
    12:00 +8°C° 1.3 mm 7 mps 752 mmHg 87%
    13:00 +8°C° 0.4 mm 6 mps 753 mmHg 83%
    14:00 +9°C° 0.4 mm 6 mps 754 mmHg 78%
    15:00 +9°C° 0.4 mm 6 mps 755 mmHg 73%
    16:00 +8°C° 0 mm 6 mps 756 mmHg 74%
    17:00 +8°C° 0 mm 5 mps 757 mmHg 74%
    18:00 +7°C° 0 mm 4 mps 759 mmHg 75%
    19:00 +7°C° 0 mm 4 mps 760 mmHg 75%
    20:00 +7°C° 0 mm 3 mps 761 mmHg 76%
    21:00 +5°C° 0 mm 3 mps 762 mmHg 77%
    22:00 +5°C° 0 mm 3 mps 763 mmHg 77%
    23:00 +6°C° 0 mm 2 mps 764 mmHg 77%

    24 September, Monday

    Time Temperature Precipitation Wind Pressure Humidity
    00:00 +6°C° 0 mm 2 mps 764 mmHg 77%
    01:00 +6°C° 0 mm 2 mps 765 mmHg 76%
    02:00 +6°C° 0 mm 2 mps 765 mmHg 76%
    03:00 +6°C° 0 mm 2 mps 766 mmHg 76%
    04:00 +6°C° 0 mm 2 mps 766 mmHg 75%
    05:00 +6°C° 0 mm 2 mps 767 mmHg 75%
    06:00 +6°C° 0 mm 2 mps 767 mmHg 75%
    07:00 +7°C° 0 mm 3 mps 767 mmHg 73%
    08:00 +8°C° 0 mm 4 mps 768 mmHg 71%
    09:00 +10°C° 0 mm 4 mps 768 mmHg 69%
    10:00 +10°C° 0 mm 5 mps 769 mmHg 66%
    11:00 +12°C° 0 mm 5 mps 769 mmHg 63%
    12:00 +13°C° 0 mm 5 mps 769 mmHg 60%
    13:00 +13°C° 0 mm 5 mps 769 mmHg 61%
    14:00 +13°C° 0 mm 5 mps 769 mmHg 62%
    15:00 +13°C° 0 mm 5 mps 769 mmHg 63%
    16:00 +12°C° 0 mm 4 mps 769 mmHg 68%
    17:00 +11°C° 0 mm 4 mps 769 mmHg 73%
    18:00 +10°C° 0 mm 3 mps 769 mmHg 79%
    19:00 +9°C° 0 mm 3 mps 770 mmHg 80%
    20:00 +8°C° 0 mm 3 mps 770 mmHg 82%
    21:00 +8°C° 0 mm 2 mps 770 mmHg 84%
    22:00 +8°C° 0 mm 2 mps 770 mmHg 84%
    23:00 +7°C° 0 mm 2 mps 770 mmHg 85%

    25 September, Tuesday

    Time Temperature Precipitation Wind Pressure Humidity
    00:00 +7°C° 0 mm 2 mps 770 mmHg 85%
    01:00 +7°C° 0 mm 2 mps 770 mmHg 86%
    02:00 +7°C° 0 mm 2 mps 770 mmHg 87%
    03:00 +7°C° 0 mm 2 mps 770 mmHg 88%
    04:00 +7°C° 0 mm 2 mps 770 mmHg 89%
    05:00 +6°C° 0 mm 2 mps 770 mmHg 89%
    06:00 +6°C° 0 mm 2 mps 770 mmHg 90%
    07:00 +8°C° 0 mm 2 mps 770 mmHg 85%
    08:00 +9°C° 0 mm 3 mps 770 mmHg 80%
    09:00 +11°C° 0 mm 3 mps 770 mmHg 75%
    10:00 +12°C° 0 mm 3 mps 769 mmHg 69%
    11:00 +13°C° 0 mm 4 mps 769 mmHg 64%
    12:00 +14°C° 0 mm 4 mps 768 mmHg 59%
    13:00 +14°C° 0 mm 4 mps 768 mmHg 59%
    14:00 +14°C° 0 mm 4 mps 767 mmHg 58%
    15:00 +14°C° 0 mm 4 mps 766 mmHg 58%
    16:00 +13°C° 0 mm 4 mps 766 mmHg 63%
    17:00 +12°C° 0 mm 3 mps 766 mmHg 68%
    18:00 +11°C° 0 mm 3 mps 766 mmHg 73%
    19:00 +10°C° 0 mm 3 mps 766 mmHg 74%
    20:00 +10°C° 0 mm 3 mps 766 mmHg 76%
    21:00 +9°C° 0 mm 3 mps 766 mmHg 78%
    22:00 +9°C° 0 mm 3 mps 765 mmHg 79%
    23:00 +8°C° 0 mm 4 mps 765 mmHg 81%
    Show more